Regional Weather Roundup
Issued by NWS Goodland, KS

Home | Current Version | Previous Version | Text Only | Print | Product List | Glossary Off
Versions: 1 2 3 4 5 6 7 8 9 10 11 12 13 14 15 16 17 18 19 20 21 22 23 24 25 26 27 28 29 30 31 32 33 34 35 36 37 38 39 40 41 42 43 44 45 46 47 48 49 50

000
ASUS43 KGLD 271659
RWRGLD

GOODLAND FORECAST AREA HOURLY WEATHER ROUNDUP
NATIONAL WEATHER SERVICE GOODLAND KS
1000 AM MST THU NOV 27 2014

...OFFICIAL OBSERVATIONS...

CITY           SKY/WX    TMP DP  RH WIND       PRES   REMARKS
GOODLAND KS    SUNNY     49  31  49 SW15      30.23F
HILL CITY KS   SUNNY     39  20  46 S16G23    30.34F
IMPERIAL NEB   SUNNY     34  26  72 S6        30.21F
MCCOOK NEB     SUNNY     38  21  50 S10       30.26F
AKRON CO       PTSUNNY   46  27  47 SW9       30.18F
BURLINGTON CO  SUNNY     50  28  42 SW14      30.22F
LIMON CO       PTSUNNY   45  27  49 N3        30.25F
$$

...UNOFFICIAL OBSERVATIONS...

CITY           SKY/WX    TMP DP  RH WIND       PRES   REMARKS
COLBY KS       SUNNY     43  28  56 SW15      30.25F
GOVE KS          N/A     40  32  73 MISG        N/A
NORTON KS      SUNNY     37  18  44 S16G24    30.31F
SHARON SPRINGS   N/A     45  29  52 SW13        N/A
TRIBUNE KS     SUNNY     48  32  53 SW12      30.28F
YUMA CO          N/A     47  34  61 S6          N/A
$$


USA.gov is the U.S. government's official web portal to all federal, state and local government web resources and services.